FENGYUN 1C DEB, 30571

Orbit data source: Space-Track

FENGYUN 1C DEB, 30571 is space debris in SSO originally from a launch on Mon, 10 May 1999 UTC launched from the Taiyaun Space Center, China (TSC). Fengyun 1C debris stems from the Chinese weather satellite Fengyun-1C, which was intentionally destroyed by a Chinese anti-satellite missile in 2007. This event dramatically increased the amount of space debris, with thousands of trackable fragments posing hazards to satellites and human spaceflight. The Fengyun 1C debris cloud has become a focal point in discussions about space sustainability and the need for international regulations to prevent the creation of new debris.

Loading next visibility...
Identifier
30571, 1999-025ALM
Orbit
SSO
Country
Flag of CNCN / PRC
Related business
Manufacturer
Unknown
Mission
Spacecraft
Bus & Motor
Unknown
Mass
Unknown
Launch date (UTC)
1999-05-10 (27 years ago)
Launch vehicle
Unknown
Launch site
Taiyaun Space Center, China (TSC)
Object type
Payload
Rocket body
Debris
Shape & HBR
Unknown shape, 0.1 m
Radar Cross Section
Small (<0.1 m²)

Expand to show TLE details & history
Last TLE update: 20 hours ago

TLE from 20 hours ago
0 FENGYUN 1C DEB
1 30571U 99025ALM 26104.30995832  .00000256  00000-0  16657-3 0  9994
2 30571  98.7174 131.9810 0020343 246.1046 126.0626 14.10822327986154
Epoch: 2026-04-14T07:26Z
TLE epoch observation values (Epoch: 2026-04-14T07:26:20.398Z)
Latitude
12.16921°
Longitude
176.02309°
Altitude
867.387 km
Speed
7.415 km/s
True Right ascension
08h 40m 23s
True Declination
12° 05' 59"
Sunlit
Object was in daylight at epoch
Visualization orbit readout
Latitude
Unknown
Longitude
Unknown
Altitude
Unknown
Speed
Unknown
Apparent Right ascension
Unknown
Apparent Declination
Unknown
Sunlit
N/A
Visualization observer readout
Local Sidereal Time
10:27:39
Azimuth
Unknown
Elevation
Unknown
Doppler factor
Unknown
Orbital elements
Apogee altitude
868.442 km
Perigee altitude
839.019 km
Semi-major axis
7,231.867 km
Eccentricity
0.00203
Inclination
98.7174°
RAAN
131.981°
Arg. of periapsis
246.1046°
True anomaly
126.25076°
Mean anomaly
126.0626°
Eccentric anomaly
126.15671°
Mean motion
3.52913 °/min
Orbital period
102.01 mins
BSTAR
0.00016657
Loading maneuver chart data...
Computing Atmospheric mass density...

Documentation

Showing up to 5 results
|